Lid_Strength_Index
0 0 1 1 1 2 2 2 2 2 2 2 2 2 3 3 3 3 3 3 4 3 3 3 3 2 3 6 7 1 -2 -2 1 5 5 5 6 7 7 7 7 9 8 7 7 7 7
0 1 1 1 2 2 2 2 2 2 2 2 2 2 2 3 3 3 3 3 3 3 3 3 3 2 5 7 1 2 2 3 5 5 6 5 6 5 6 7 8 7 7 7 7 7 7
1 0 1 1 1 2 2 2 2 2 2 2 2 2 2 2 3 3 3 4 4 4 3 3 2 2 4 5 1 2 4 5 6 5 6 4 3 5 5 7 6 7 9 8 7 7 8
1 1 1 1 1 1 2 2 2 2 2 2 2 3 3 2 2 3 3 4 4 3 3 2 2 3 6 1 1 2 3 4 5 5 5 3 3 5 6 5 7 10 10 13 8 7 7
1 1 1 1 1 1 2 2 2 2 2 3 3 3 3 3 3 3 4 4 3 2 1 2 4 5 6 1 3 2 2 4 4 5 5 2 4 8 5 10 12 11 15 13 11 7 8
1 1 1 1 1 2 2 2 3 3 3 3 3 3 3 3 3 4 4 4 2 3 2 2 2 6 4 4 4 3 2 3 5 5 6 6 6 10 9 11 17 14 14 12 13 9 9
1 1 2 2 2 2 3 3 2 2 2 2 3 3 3 3 3 4 5 5 5 6 4 5 5 5 3 3 2 3 2 4 5 7 8 7 11 13 11 10 10 11 12 13 11 8 10
2 2 2 2 2 3 3 3 3 4 3 3 4 4 3 3 4 4 6 6 4 3 6 3 3 4 3 5 6 5 4 6 8 9 8 9 11 9 8 8 10 11 12 12 10 8 10
2 2 3 3 3 3 3 3 4 4 4 4 4 4 4 4 5 6 5 5 3 3 7 5 4 4 5 6 6 6 5 6 8 9 8 10 8 7 8 9 11 11 12 11 11 10 9
3 3 3 3 3 3 3 3 4 4 4 4 4 4 4 5 5 3 4 4 4 3 10 8 6 4 4 5 7 4 4 6 7 8 8 9 7 8 9 9 9 14 9 9 11 12 17
3 3 3 3 3 4 4 4 4 4 4 3 3 3 4 5 5 4 3 3 3 4 16 6 7 3 4 7 7 6 4 6 8 7 9 9 8 9 8 8 8 10 7 8 8 10 13
3 4 4 4 4 4 4 4 4 4 4 4 4 4 4 4 5 3 2 2 4 10 15 8 6 7 6 6 6 6 6 6 5 7 7 8 7 8 8 6 7 7 8 9 10 12 16
4 4 4 4 5 5 5 5 5 5 5 5 5 5 5 4 4 2 2 6 11 14 7 8 8 7 7 8 7 7 8 9 10 13 12 10 9 7 7 9 8 8 11 15 17 17 17
4 4 4 5 5 5 5 5 5 5 5 5 6 6 5 4 3 3 4 8 14 9 9 7 7 8 8 7 8 9 10 10 8 9 11 13 14 10 7 9 10 10 12 15 20 18 16
4 4 4 5 5 5 5 5 5 5 5 5 7 3 3 2 3 3 7 12 11 9 7 8 7 9 9 7 8 9 10 10 9 9 13 13 11 8 7 7 9 11 12 11 14 13 15
4 4 4 5 5 5 4 4 5 5 5 6 6 4 3 1 2 5 10 12 9 8 7 8 9 8 10 9 9 9 9 8 8 7 8 10 12 9 8 8 8 10 10 14 13 16 18
4 4 4 4 4 5 4 4 5 5 6 6 6 5 3 2 4 8 12 10 8 6 7 8 9 9 9 9 8 9 9 7 6 7 7 7 11 10 9 11 11 11 12 11 12 13 16
3 4 4 4 4 4 4 4 5 6 6 5 5 8 3 3 8 8 11 9 9 7 6 7 7 9 9 8 9 9 9 7 6 7 9 8 11 12 11 9 8 9 10 12 14 14 14
4 4 4 4 4 4 3 3 4 5 6 6 6 5 1 3 10 10 8 8 8 7 7 7 7 7 7 8 10 8 7 5 5 6 9 9 11 14 12 10 8 10 9 10 11 13 14
4 4 4 4 4 3 3 3 4 4 4 5 5 9 5 5 6 8 9 8 8 6 6 6 7 7 8 8 8 9 8 6 5 6 3 6 11 12 14 13 11 12 10 9 11 14 13
4 4 4 4 4 3 3 3 4 4 4 5 5 7 5 9 8 7 7 7 8 8 6 6 7 7 8 10 9 9 7 7 6 5 6 9 11 11 11 9 9 10 10 9 11 11 13
4 4 4 4 4 4 3 3 3 4 5 4 6 7 5 7 6 7 7 8 8 7 7 7 8 6 7 9 8 10 8 9 9 7 7 8 11 11 11 8 8 9 9 9 9 9 11
5 5 4 4 4 4 3 3 3 4 5 3 3 3 5 7 7 8 8 7 7 6 6 5 6 7 7 7 6 7 7 7 7 9 9 9 10 12 14 10 10 13 10 9 9 8 9
5 5 5 5 4 3 3 3 3 3 4 4 4 4 7 9 8 8 7 6 7 6 7 6 5 7 6 4 5 5 6 7 6 7 7 10 11 12 14 12 17 11 8 7 8 7 8
5 5 5 5 4 3 3 2 2 3 4 4 4 4 6 10 7 7 7 7 6 6 6 6 5 4 4 5 8 10 10 10 8 7 7 8 10 13 15 16 12 9 8 9 10 10 7
5 5 5 4 3 3 3 2 2 3 4 4 4 3 4 8 8 6 7 6 8 8 8 6 4 3 4 7 9 13 14 12 12 10 7 7 7 11 13 16 17 11 7 6 7 12 7
5 5 5 4 3 3 3 3 3 3 4 5 4 2 4 7 5 5 8 8 6 7 8 7 6 6 5 9 11 12 12 9 13 12 12 11 11 12 14 16 13 8 6 6 13 12 7
5 5 5 5 4 4 4 3 3 4 4 4 4 2 3 6 5 4 4 6 6 6 9 7 7 7 8 11 11 11 12 10 11 10 11 12 13 14 13 15 16 6 6 10 9 7 6
5 5 5 4 4 4 4 4 3 3 3 3 5 2 2 4 5 3 3 2 3 3 5 6 7 7 7 10 10 10 12 10 12 13 8 13 11 12 12 12 8 6 6 6 5 6 6